Vertical_Velocity
0 -0 1 -0 0 1 0 -0 -2 -0 -1 -1 0 -1 0 -0 0 -1 0 -1 -0 1 -1 0 -1 1 0 0 -0 0 1 -1 -1 -1 -1 0 0 -0 0 1 1 -0 -1
-1 -1 1 -1 -1 -0 -0 -1 -0 -1 -1 0 -0 1 -0 1 0 -1 -1 -1 -1 -2 -0 -1 -1 -1 -1 -1 -1 -1 -2 -1 -0 -1 -0 -0 -0 0 1 1 -0 -0 -0
-0 0 1 0 -1 -0 0 1 -1 -0 0 -0 1 -0 -1 -0 -1 -1 -1 -1 -0 -1 -1 -0 -0 -1 -1 -0 -1 -0 -0 0 -0 1 1 -0 -0 -0 -0 -0 -1 -1 -0
-1 -0 1 1 -0 0 -0 -0 0 -1 0 1 0 -0 -1 -1 -1 -1 -1 -1 -1 -1 0 0 -0 -0 -0 0 1 0 -1 -1 -1 0 -0 -0 -1 -1 -0 0 -0 -2 -2
-1 -0 0 1 1 0 -0 -0 0 0 1 0 -0 -0 -0 0 -1 -1 -1 -1 -1 -0 -1 -0 -0 -0 -0 0 1 1 -0 -0 -1 -1 -1 -0 -1 -1 -2 -1 1 1 -1
-0 -0 -1 0 1 -0 -0 -0 -1 0 2 0 -0 -1 -0 -0 0 -1 -1 -0 -1 -1 -1 -1 -0 -1 -0 0 1 1 1 -1 -2 -1 -1 0 0 -1 -0 -2 -2 -1 0
-0 -1 -1 -1 -1 0 -0 0 1 1 -1 -1 0 0 -0 -1 -0 0 -0 -0 -0 -1 -1 -0 -0 0 -0 -0 -0 -0 -2 -0 -2 -1 -1 -1 0 -0 -0 1 -1 -0 -0
-1 -1 -1 -1 -1 0 0 1 1 1 0 -1 -3 -2 -1 -1 -0 -0 0 0 -0 -1 -1 -1 -1 0 0 0 -1 2 -1 1 -1 -2 -1 -0 -0 0 -1 0 0 1 1
-2 -2 -1 -0 -0 0 -0 1 1 0 -1 -0 -1 -1 -2 -0 0 0 -1 -1 -0 -0 -1 -0 -1 -0 -0 -0 -0 -0 0 -1 0 -1 -2 0 0 -1 -1 -2 -1 -1 0
-1 -1 -1 0 0 0 1 -1 -0 -1 -1 -0 1 1 -1 -1 -1 -1 -1 0 -1 -1 -1 -0 -1 -1 -0 -0 0 -0 1 -2 1 1 -0 -1 1 -0 -1 1 2 1 -2
-1 -0 0 0 -0 -1 1 -1 -0 -1 -1 -1 -0 1 1 0 -1 -0 -1 -1 -0 -0 -1 -1 -1 -0 -1 -1 -1 -1 1 -3 -2 0 -0 -1 -1 1 1 -1 -1 -0 -2
-1 -0 -0 -0 -0 -1 -0 -1 -0 -1 -1 -1 -0 0 0 -1 -1 -1 -1 -1 -1 -0 -1 -1 -1 -1 -1 -1 -1 1 0 -1 -3 -2 -0 -1 -1 -0 0 1 0 -0 1
-2 -1 -0 -0 0 -1 -1 1 -1 -1 0 -0 -2 0 -1 -0 -1 -1 -1 -1 -0 -1 -1 -1 -1 -1 -1 -1 -1 -1 1 -0 -2 -2 -1 0 1 -0 -0 -0 2 -0 -1
-1 -1 -1 -0 0 -0 -0 -1 1 1 1 0 0 -1 1 0 -1 -0 -1 -0 -1 -1 -1 -0 -1 -1 -2 -1 -1 -2 0 1 1 -1 -2 -1 1 1 1 1 -2 -1 0
0 1 -1 -0 -1 -2 -1 1 1 0 -0 0 0 -1 -0 -1 -2 -1 -1 -0 -0 -1 -1 -1 -1 -1 -1 -2 -1 -1 -2 1 0 -0 -1 -2 -1 1 3 -1 1 1 0
-1 -0 -1 1 0 -0 -1 -1 -1 -0 -1 -2 -2 -1 -1 0 -1 -2 -2 -3 -2 -0 -1 -0 -1 -1 -1 -1 -1 -2 -2 -1 -0 0 1 -2 -2 2 0 1 1 0 0
-3 -1 2 1 1 1 -0 0 0 0 -0 -1 -1 -0 -1 -1 -1 -1 -0 -1 -4 -1 -2 -1 -1 -1 -1 -1 -2 -0 1 1 1 2 -1 1 -2 -2 -3 2 1 1 1
-4 0 1 1 2 1 -0 -1 2 2 -1 -1 -2 -1 -1 -1 1 0 0 -1 -1 -1 -1 -1 -2 -1 -1 -1 -2 -4 -2 2 3 2 3 1 0 -1 0 -2 -0 -0 0
4 1 -3 -1 1 -0 1 3 1 -2 2 0 2 -0 -1 -1 -1 3 3 2 1 1 2 -1 1 1 2 0 0 -1 -3 -3 1 4 0 -1 1 1 -2 1 1 3 2
2 3 2 -3 -3 -3 -2 -2 -1 0 3 1 -1 2 -1 -0 -1 -2 -2 -2 -2 -2 -0 -0 2 0 3 -1 -1 1 -0 1 -5 3 4 2 -1 -1 0 -2 -0 1 4
1 1 0 3 1 -4 -5 -5 -3 0 -1 2 1 2 3 1 2 -1 4 -0 -3 -1 1 -1 -1 3 -1 1 -1 -1 -1 -1 3 -2 -3 3 3 2 1 1 -3 -2 0
1 -0 -2 -2 1 4 2 -0 -2 -3 -5 -7 -1 2 -0 1 -0 -0 3 2 4 -2 -2 1 -3 -3 -1 1 -1 -3 -1 0 6 -3 -4 -1 5 0 3 2 1 -2 -2
0 -0 -1 -1 -3 -6 -2 3 5 5 5 4 1 -1 -4 -6 -4 -4 -3 1 2 2 3 1 2 1 -1 3 2 -2 -6 5 1 13 3 -3 -1 1 1 -0 -0 0 -1
-1 -1 0 0 -1 -1 -0 -5 -5 -2 -0 -1 2 3 5 1 1 1 -2 -2 -1 3 4 1 1 1 -1 2 0 7 -2 0 -6 -9 14 5 -2 -2 3 1 -0 2 -1
-2 -4 -4 -2 -2 -1 -1 -1 -1 -3 -1 1 -1 2 2 4 0 -1 -1 -1 -2 -5 -2 3 -1 -0 3 -3 8 -3 -0 -1 0 -6 -14 7 6 13 2 5 5 0 0
-3 -2 -1 -1 -1 -0 -0 -0 -1 -0 -2 -1 -2 -0 0 1 -1 2 2 -2 -4 -5 -5 -5 -2 1 -1 3 -0 3 2 -2 6 1 2 -0 1 13 4 -1 0 6 7
Height
5895 5895 5896 5897 5898 5898 5898 5898 5898 5898 5899 5900 5899 5899 5898 5899 5898 5898 5898 5897 5897 5896 5895 5895 5894 5893 5893 5892 5891 5890 5889 5887 5886 5885 5884 5882 5881 5879 5878 5878 5877 5876 5874
5893 5894 5895 5895 5895 5896 5897 5897 5897 5898 5899 5898 5898 5897 5898 5898 5897 5897 5897 5896 5896 5895 5894 5893 5893 5892 5891 5890 5889 5888 5886 5884 5883 5882 5881 5881 5879 5878 5877 5875 5874 5873 5873
5889 5891 5892 5893 5893 5894 5895 5895 5896 5897 5897 5897 5897 5897 5897 5897 5897 5896 5896 5895 5894 5893 5892 5891 5890 5889 5888 5888 5887 5886 5884 5883 5881 5880 5879 5878 5877 5875 5874 5873 5872 5871 5870
5887 5889 5890 5891 5892 5892 5893 5894 5895 5896 5896 5896 5896 5896 5896 5896 5896 5895 5894 5893 5892 5892 5891 5889 5888 5887 5886 5885 5884 5883 5881 5879 5877 5878 5876 5875 5874 5873 5872 5871 5870 5869 5867
5885 5886 5888 5889 5890 5891 5892 5893 5894 5894 5895 5895 5895 5895 5895 5895 5894 5893 5892 5891 5890 5889 5888 5887 5886 5885 5883 5882 5881 5880 5879 5878 5876 5875 5874 5873 5872 5871 5869 5868 5867 5866 5865
5883 5884 5885 5887 5888 5890 5891 5892 5892 5893 5893 5893 5894 5894 5894 5893 5892 5891 5890 5889 5888 5887 5886 5885 5883 5883 5881 5880 5878 5877 5876 5876 5874 5872 5871 5870 5869 5868 5866 5865 5864 5863 5862
5880 5882 5883 5885 5886 5888 5890 5891 5891 5891 5891 5891 5892 5892 5891 5891 5890 5889 5888 5886 5885 5885 5883 5882 5881 5880 5878 5877 5875 5874 5873 5872 5870 5870 5868 5868 5866 5865 5863 5862 5861 5860 5859
5877 5879 5882 5883 5884 5886 5888 5889 5890 5890 5890 5890 5889 5889 5889 5888 5887 5886 5885 5884 5883 5882 5881 5880 5878 5877 5875 5874 5872 5872 5870 5869 5868 5866 5864 5863 5862 5861 5860 5858 5857 5856 5855
5874 5877 5879 5881 5883 5884 5885 5886 5887 5887 5888 5888 5888 5887 5885 5885 5884 5884 5883 5882 5881 5879 5878 5877 5876 5874 5873 5871 5870 5869 5868 5866 5865 5863 5861 5859 5859 5858 5856 5855 5853 5852 5851
5871 5874 5875 5877 5880 5882 5883 5883 5884 5885 5885 5885 5885 5884 5883 5882 5881 5880 5879 5879 5877 5876 5875 5874 5873 5871 5870 5869 5867 5866 5865 5863 5861 5860 5858 5857 5855 5854 5852 5851 5850 5848 5847
5869 5871 5873 5874 5876 5878 5879 5880 5881 5881 5881 5881 5881 5881 5881 5879 5878 5877 5875 5875 5873 5872 5871 5870 5869 5868 5867 5865 5864 5862 5861 5860 5857 5856 5855 5853 5852 5849 5848 5847 5845 5844 5843
5865 5868 5870 5872 5873 5874 5876 5877 5878 5879 5879 5878 5877 5877 5877 5876 5875 5874 5873 5872 5870 5869 5867 5866 5865 5864 5863 5861 5859 5858 5857 5856 5854 5852 5850 5850 5848 5846 5844 5843 5842 5840 5838
5860 5863 5865 5867 5869 5870 5871 5872 5874 5875 5874 5874 5873 5873 5873 5873 5871 5870 5869 5868 5867 5865 5863 5862 5861 5860 5859 5857 5855 5854 5852 5851 5850 5848 5846 5845 5843 5842 5841 5839 5837 5836 5835
5855 5859 5860 5862 5865 5866 5867 5869 5870 5871 5870 5869 5868 5868 5868 5868 5867 5866 5865 5864 5862 5861 5859 5858 5857 5856 5854 5853 5851 5849 5847 5846 5846 5844 5841 5839 5838 5837 5835 5834 5833 5831 5830
5851 5854 5856 5857 5859 5860 5862 5864 5866 5866 5865 5865 5865 5864 5864 5864 5863 5861 5860 5859 5858 5857 5855 5854 5853 5852 5850 5847 5846 5844 5842 5841 5840 5838 5837 5835 5833 5831 5830 5829 5827 5826 5825
5845 5848 5852 5853 5855 5856 5858 5859 5860 5860 5861 5861 5861 5861 5860 5859 5858 5857 5856 5854 5853 5852 5851 5850 5848 5846 5844 5842 5841 5839 5837 5835 5834 5832 5831 5830 5828 5826 5825 5823 5821 5820 5819
5838 5841 5845 5848 5850 5852 5853 5854 5855 5856 5856 5856 5855 5855 5854 5854 5852 5852 5851 5850 5848 5847 5845 5843 5842 5841 5838 5836 5834 5832 5830 5829 5828 5826 5824 5823 5822 5820 5819 5817 5816 5814 5813
5831 5834 5837 5841 5845 5846 5848 5850 5850 5850 5850 5851 5850 5849 5849 5848 5848 5848 5846 5845 5843 5841 5839 5837 5835 5833 5831 5829 5826 5824 5822 5821 5820 5818 5816 5815 5814 5813 5811 5810 5808 5808 5807
5824 5828 5831 5834 5839 5840 5841 5843 5843 5843 5845 5845 5845 5844 5843 5842 5841 5840 5840 5838 5837 5834 5833 5831 5828 5826 5825 5822 5819 5817 5815 5814 5812 5811 5809 5807 5806 5804 5802 5800 5799 5799 5798
5819 5822 5826 5827 5829 5830 5832 5834 5836 5836 5837 5838 5838 5838 5836 5836 5834 5832 5830 5828 5827 5825 5824 5821 5820 5818 5816 5813 5810 5807 5806 5804 5802 5802 5800 5798 5796 5794 5793 5790 5789 5788 5787
5811 5815 5819 5821 5822 5822 5823 5824 5826 5828 5829 5829 5830 5829 5828 5828 5826 5825 5824 5822 5819 5817 5814 5812 5810 5808 5806 5803 5799 5799 5796 5794 5792 5790 5788 5786 5785 5783 5782 5781 5780 5778 5777
5805 5807 5809 5811 5814 5817 5818 5819 5819 5820 5819 5819 5820 5820 5820 5819 5818 5817 5816 5814 5812 5810 5806 5804 5801 5799 5797 5794 5790 5787 5787 5786 5784 5778 5776 5775 5774 5772 5771 5770 5769 5768 5768
5797 5798 5800 5803 5806 5808 5811 5813 5815 5815 5815 5814 5813 5811 5809 5809 5809 5807 5805 5803 5802 5799 5798 5795 5792 5789 5787 5784 5781 5775 5773 5773 5771 5769 5765 5763 5762 5761 5760 5758 5756 5756 5755
5788 5791 5793 5796 5798 5800 5802 5803 5804 5805 5806 5806 5806 5806 5805 5803 5802 5799 5795 5793 5791 5790 5789 5786 5782 5779 5775 5773 5769 5765 5761 5759 5757 5757 5755 5751 5748 5748 5747 5745 5744 5743 5741
5780 5783 5786 5788 5791 5792 5793 5794 5795 5796 5796 5796 5796 5796 5797 5796 5794 5792 5789 5786 5783 5780 5778 5775 5772 5769 5765 5761 5759 5754 5750 5747 5744 5740 5740 5737 5731 5731 5731 5730 5730 5730 5729
5772 5775 5777 5779 5782 5783 5784 5784 5785 5786 5786 5786 5786 5786 5785 5784 5782 5781 5778 5776 5773 5770 5767 5764 5761 5758 5754 5751 5747 5743 5739 5735 5731 5726 5723 5720 5717 5712 5710 5712 5713 5714 5715